Taos, NM

1:52 PM MDT on May 29, 2017 (GMT -0600)
Taos Municipal

Weather History for KSKX - October, 2012

Change the Weather History Date:

Wednesday, October 31, 2012

  Actual Average Record
Temperature  
Mean Temperature 46 °F -  
Max Temperature 69 °F 53 °F 71 °F (2008)
Min Temperature 23 °F 24 °F 17 °F (2004)
Degree Days  
Heating Degree Days 19    
Moisture  
Dew Point 11 °F    
Average Humidity 29    
Maximum Humidity 51    
Minimum Humidity 12    
Precipitation  
Precipitation 0.00 in - - ()
Sea Level Pressure  
Sea Level Pressure 30.27 in    
Wind  
Wind Speed 5 mph (North)    
Max Wind Speed 12 mph    
Max Gust Speed -    
Visibility 10 miles    
Events      
Averages and records for this station are not official NWS values.
T = Trace of Precipitation, MM = Missing Value Source: NWS Daily Summary

Daily Weather History Graph

Daily Weather History Graph

Search for Another Location

Airport or City:

Trip Planner

Search our weather history database for the weather conditions in past years. The results will help you decide how hot, cold, wet, or windy it might be!

Date:

Astronomy

Oct. 31, 2012 Rise Set
Actual Time 7:25 AM MDT 6:06 PM MDT
Civil Twilight 6:58 AM MDT 6:33 PM MDT
Nautical Twilight 6:28 AM MDT 7:03 PM MDT
Astronomical Twilight 5:58 AM MDT 7:33 PM MDT
Moon 7:23 PM MDT (10/31) 9:05 AM MDT (10/31)
Length of Visible Light 11h 34m
Length of Day
10h 41m
Full, 97% of the Moon is Illuminated
Oct 31
Full
Nov 6
Last Quarter
Nov 13
New
Nov 20
First Quarter
Nov 28
Full

Hourly Weather History & Observations

Time (MDT) Temp. Windchill Dew Point Humidity Pressure Visibility Wind Dir Wind Speed Gust Speed Precip Events Conditions
12:15 AM 33.8 °F 30.8 °F 8.6 °F 35% 30.26 in 10.0 mi North 3.5 mph - N/A   Clear
12:35 AM 35.6 °F 32.8 °F 10.4 °F 35% 30.26 in 10.0 mi North 3.5 mph - N/A   Clear
12:55 AM 30.2 °F 22.6 °F 3.2 °F 32% 30.27 in 10.0 mi North 8.1 mph - N/A   Clear
1:15 AM 28.4 °F 22.2 °F 6.8 °F 40% 30.27 in 10.0 mi NNW 5.8 mph - N/A   Clear
1:35 AM 28.4 °F 22.2 °F 6.8 °F 40% 30.27 in 10.0 mi North 5.8 mph - N/A   Clear
1:55 AM 28.4 °F 21.2 °F 5.0 °F 37% 30.27 in 10.0 mi North 6.9 mph - N/A   Clear
2:15 AM 28.4 °F 21.2 °F 6.8 °F 40% 30.28 in 10.0 mi North 6.9 mph - N/A   Clear
2:35 AM 28.4 °F 24.6 °F 8.6 °F 43% 30.28 in 10.0 mi NE 3.5 mph - N/A   Clear
2:55 AM 30.2 °F 23.4 °F 8.6 °F 40% 30.28 in 10.0 mi East 6.9 mph - N/A   Clear
3:15 AM 28.4 °F - 6.8 °F 40% 30.28 in 10.0 mi Calm Calm - N/A   Clear
3:35 AM 30.2 °F - 10.4 °F 44% 30.27 in 10.0 mi Calm Calm - N/A   Clear
3:55 AM 28.4 °F - 8.6 °F 43% 30.27 in 10.0 mi Calm Calm - N/A   Clear
4:15 AM 26.6 °F 20.0 °F 5.0 °F 40% 30.27 in 10.0 mi North 5.8 mph - N/A   Clear
4:35 AM 24.8 °F 19.1 °F 5.0 °F 43% 30.28 in 10.0 mi North 4.6 mph - N/A   Clear
4:55 AM 26.6 °F 18.2 °F 6.8 °F 43% 30.28 in 10.0 mi North 8.1 mph - N/A   Clear
5:15 AM 26.6 °F 18.2 °F 8.6 °F 47% 30.28 in 10.0 mi North 8.1 mph - N/A   Clear
5:35 AM 26.6 °F 20.0 °F 8.6 °F 47% 30.29 in 10.0 mi North 5.8 mph - N/A   Clear
5:55 AM 24.8 °F 19.1 °F 5.0 °F 43% 30.28 in 10.0 mi ESE 4.6 mph - N/A   Clear
6:15 AM 24.8 °F 20.5 °F 3.2 °F 40% 30.29 in 10.0 mi North 3.5 mph - N/A   Clear
6:35 AM 28.4 °F - 8.6 °F 43% 30.29 in 10.0 mi Calm Calm - N/A   Clear
6:55 AM 26.6 °F 22.6 °F 6.8 °F 43% 30.29 in 10.0 mi North 3.5 mph - N/A   Clear
7:15 AM 23.0 °F 13.9 °F 3.2 °F 43% 30.30 in 10.0 mi North 8.1 mph - N/A   Clear
7:35 AM 24.8 °F 17.9 °F 6.8 °F 46% 30.30 in 10.0 mi North 5.8 mph - N/A   Clear
7:55 AM 26.6 °F 21.2 °F 10.4 °F 51% 30.31 in 10.0 mi North 4.6 mph - N/A   Clear
8:15 AM 30.2 °F 25.4 °F 10.4 °F 44% 30.31 in 10.0 mi North 4.6 mph - N/A   Clear
8:35 AM 35.6 °F 30.7 °F 12.2 °F 38% 30.32 in 10.0 mi North 5.8 mph - N/A   Clear
8:55 AM 37.4 °F 32.8 °F 12.2 °F 36% 30.32 in 10.0 mi North 5.8 mph - N/A   Clear
9:15 AM 41.0 °F 38.0 °F 14.0 °F 33% 30.32 in 10.0 mi North 4.6 mph - N/A   Clear
9:35 AM 44.6 °F 43.1 °F 15.8 °F 31% 30.32 in 10.0 mi North 3.5 mph - N/A   Clear
9:55 AM 46.4 °F 43.5 °F 17.6 °F 32% 30.33 in 10.0 mi North 5.8 mph - N/A   Clear
10:15 AM 51.8 °F - 17.6 °F 26% 30.32 in 10.0 mi North 5.8 mph - N/A   Clear
10:35 AM 53.6 °F - 19.4 °F 26% 30.31 in 10.0 mi North 6.9 mph - N/A   Clear
10:55 AM 55.4 °F - 19.4 °F 25% 30.31 in 10.0 mi North 6.9 mph - N/A   Clear
11:15 AM 57.2 °F - 19.4 °F 23% 30.31 in 10.0 mi North 10.4 mph - N/A   Clear
11:35 AM 60.8 °F - 19.4 °F 20% 30.30 in 10.0 mi North 9.2 mph - N/A   Clear
11:55 AM 60.8 °F - 19.4 °F 20% 30.30 in 10.0 mi North 10.4 mph - N/A   Clear
12:15 PM 62.6 °F - 19.4 °F 19% 30.29 in 10.0 mi North 9.2 mph - N/A   Clear
12:35 PM 62.6 °F - 19.4 °F 19% 30.28 in 10.0 mi North 9.2 mph - N/A   Clear
12:55 PM 64.4 °F - 19.4 °F 18% 30.27 in 10.0 mi NW 10.4 mph - N/A   Clear
1:15 PM 64.4 °F - 19.4 °F 18% 30.25 in 10.0 mi NNW 11.5 mph - N/A   Clear
1:35 PM 66.2 °F - 19.4 °F 17% 30.25 in 10.0 mi NNW 8.1 mph - N/A   Clear
1:55 PM 66.2 °F - 19.4 °F 17% 30.24 in 10.0 mi North 11.5 mph - N/A   Clear
2:15 PM 66.2 °F - 19.4 °F 17% 30.23 in 10.0 mi NNW 10.4 mph - N/A   Clear
2:35 PM 68.0 °F - 17.6 °F 15% 30.22 in 10.0 mi NNW 9.2 mph - N/A   Clear
2:55 PM 68.0 °F - 17.6 °F 15% 30.21 in 10.0 mi NNW 5.8 mph - N/A   Clear
3:15 PM 68.0 °F - 17.6 °F 15% 30.21 in 10.0 mi North 6.9 mph - N/A   Clear
3:35 PM 68.0 °F - 15.8 °F 13% 30.21 in 10.0 mi NW 5.8 mph - N/A   Clear
3:55 PM 68.0 °F - 15.8 °F 13% 30.21 in 10.0 mi North 9.2 mph - N/A   Clear
4:15 PM 69.8 °F - 15.8 °F 13% 30.21 in 10.0 mi North 6.9 mph - N/A   Clear
4:35 PM 68.0 °F - 14.0 °F 12% 30.21 in 10.0 mi WNW 6.9 mph - N/A   Clear
4:55 PM 68.0 °F - 14.0 °F 12% 30.21 in 10.0 mi Calm Calm - N/A   Clear
5:15 PM 66.2 °F - 12.2 °F 12% 30.21 in 10.0 mi West 3.5 mph - N/A   Clear
5:35 PM 66.2 °F - 12.2 °F 12% 30.21 in 10.0 mi NW 3.5 mph - N/A   Clear
5:55 PM 62.6 °F - 10.4 °F 13% 30.21 in 10.0 mi Calm Calm - N/A   Clear
6:15 PM 57.2 °F - 6.8 °F 13% 30.21 in 10.0 mi SW 8.1 mph - N/A   Clear
6:35 PM 55.4 °F - 8.6 °F 15% 30.22 in 10.0 mi WSW 4.6 mph - N/A   Clear
6:55 PM 51.8 °F - 8.6 °F 18% 30.23 in 10.0 mi WSW 9.2 mph - N/A   Clear
7:15 PM 50.0 °F - 10.4 °F 20% 30.24 in 10.0 mi WSW 6.9 mph - N/A   Clear
7:35 PM 48.2 °F - 8.6 °F 20% 30.24 in 10.0 mi Calm Calm - N/A   Clear
7:55 PM 44.6 °F - 6.8 °F 21% 30.25 in 10.0 mi Calm Calm - N/A   Clear
8:15 PM 42.8 °F 39.3 °F 6.8 °F 23% 30.26 in 10.0 mi ENE 5.8 mph - N/A   Clear
8:35 PM 44.6 °F 42.2 °F 8.6 °F 23% 30.26 in 10.0 mi NE 4.6 mph - N/A   Clear
9:15 PM 41.0 °F 35.2 °F 6.8 °F 24% 30.27 in 10.0 mi ESE 9.2 mph - N/A   Clear
9:35 PM 41.0 °F 35.2 °F 8.6 °F 26% 30.27 in 10.0 mi East 9.2 mph - N/A   Clear
10:15 PM 41.0 °F 38.0 °F 8.6 °F 26% 30.28 in 10.0 mi NNE 4.6 mph - N/A   Clear
10:35 PM 39.2 °F 34.2 °F 10.4 °F 31% 30.28 in 10.0 mi East 6.9 mph - N/A   Clear
10:55 PM 39.2 °F 35.9 °F 8.6 °F 28% 30.28 in 10.0 mi NE 4.6 mph - N/A   Clear
11:15 PM 35.6 °F 32.8 °F 6.8 °F 30% 30.28 in 10.0 mi North 3.5 mph - N/A   Clear
11:35 PM 35.6 °F 31.7 °F 6.8 °F 30% 30.28 in 10.0 mi NNW 4.6 mph - N/A   Clear
11:55 PM 33.8 °F 27.7 °F 5.0 °F 30% 30.29 in 10.0 mi North 6.9 mph - N/A   Clear